Content
SEND FEEDBACK

Daily
Averages
Monthly
Summary
Thailand

RAYONG, THAILAND


Home > Asia > Thailand
Elevation: 16 feet     Latitude: 12 38N     Longitude: 101 21E

WEATHER
 
SELECT A DAY
Number of Records: 204,707;   Date Range: 7/1/96 - 10/23/14
 
SHARE

PRINT THIS DATA

[ ← Previous Day ]
WEATHER ALMANAC - JULY 1, 2013
[ Next Day → ]
[ °C ]   °F
We're sorry. There is no daily almanac available for Rayong, Thailand on July 1, 2013.
WEATHER BY HOUR - JULY 1, 2013
[ °C ]   °F
Local TimeTemperatureDewpointHumidityBarometerVisibilityWind DirectionWind SpeedGust SpeedPrecipitationEventsConditions
12:30 AM80.6 °F75.2 °F84 %29.74 in5.0 miCalmScattered Clouds
1:00 AM80.6 °F75.2 °F84 %29.71 in5.0 miCalmScattered Clouds
2:30 AM82.4 °F75.2 °F79 %29.68 in5.0 miNNW (330°)4.6 mphScattered Clouds
3:30 AM82.4 °F73.4 °F74 %29.68 in5.6 miNW (310°)3.5 mphScattered Clouds
4:00 AM82.4 °F73.4 °F74 %29.68 in5.6 miNW (320°)5.8 mphScattered Clouds
5:00 AM80.6 °F73.4 °F79 %29.68 in6.2 miNorth (10°)3.5 mphScattered Clouds
5:30 AM80.6 °F73.4 °F79 %29.68 in6.2 miNorth (10°)3.5 mphScattered Clouds
6:00 AM80.6 °F73.4 °F79 %29.68 in6.2 miCalmScattered Clouds
6:30 AM80.6 °F73.4 °F79 %29.71 in6.2 miCalmScattered Clouds
7:00 AM82.4 °F73.4 °F74 %29.71 in6.2 miCalmScattered Clouds
7:30 AM86.0 °F75.2 °F70 %29.71 in6.2 miCalmScattered Clouds
8:00 AM86.0 °F73.4 °F66 %29.71 in6.2 miWest (270°)3.5 mphScattered Clouds
8:30 AM87.8 °F73.4 °F62 %29.71 in6.2 miWSW (250°)4.6 mphScattered Clouds
9:00 AM89.6 °F73.4 °F59 %29.71 in6.2 miWest (260°)4.6 mphScattered Clouds
9:30 AM87.8 °F73.4 °F62 %29.71 in6.2 miWest (280°)4.6 mphScattered Clouds
10:00 AM89.6 °F75.2 °F62 %29.71 in6.2 miSSW (200°)11.5 mphScattered Clouds
10:30 AM89.6 °F75.2 °F62 %29.71 in6.2 miSSW (200°)9.2 mphScattered Clouds
11:00 AM91.4 °F75.2 °F59 %29.71 in6.2 miSouth (190°)9.2 mphScattered Clouds
11:30 AM91.4 °F73.4 °F55 %29.71 in6.2 miSSW (200°)9.2 mphScattered Clouds
12:00 PM91.4 °F75.2 °F59 %29.71 in6.2 miWSW (240°)9.2 mphScattered Clouds
12:30 PM91.4 °F73.4 °F55 %29.68 in6.2 miWest (260°)9.2 mphScattered Clouds
1:00 PM91.4 °F75.2 °F59 %29.68 in6.2 miSW (220°)11.5 mphScattered Clouds
1:30 PM91.4 °F73.4 °F55 %29.68 in6.2 miSW (230°)11.5 mphScattered Clouds
2:00 PM91.4 °F73.4 °F55 %29.65 in6.2 miSW (230°)9.2 mphScattered Clouds
2:30 PM91.4 °F73.4 °F55 %29.65 in6.2 miSSW (200°)9.2 mphScattered Clouds
3:00 PM91.4 °F73.4 °F55 %29.62 in6.2 miSW (230°)6.9 mphScattered Clouds
3:30 PM89.6 °F73.4 °F59 %29.62 in6.2 miWSW (240°)9.2 mphMostly Cloudy
4:00 PM89.6 °F71.6 °F55 %29.62 in6.2 miWest (270°)9.2 mphMostly Cloudy
4:30 PM87.8 °F73.4 °F62 %29.62 in6.2 miSSW (200°)9.2 mphMostly Cloudy
5:00 PM87.8 °F75.2 °F66 %29.62 in6.2 miSSW (210°)9.2 mphMostly Cloudy
5:30 PM86.0 °F75.2 °F70 %29.62 in6.2 miWest (280°)9.2 mphMostly Cloudy
6:00 PM86.0 °F75.2 °F70 %29.62 in6.2 miSW (220°)9.2 mphMostly Cloudy
6:30 PM86.0 °F77.0 °F74 %29.65 in6.2 miSW (220°)9.2 mphMostly Cloudy
7:00 PM86.0 °F75.2 °F70 %29.65 in6.2 miWSW (240°)6.9 mphMostly Cloudy
7:30 PM86.0 °F75.2 °F70 %29.65 in6.2 miWest (270°)9.2 mphMostly Cloudy
8:00 PM86.0 °F77.0 °F74 %29.68 in6.2 miWSW (250°)4.6 mphMostly Cloudy
8:30 PM84.2 °F77.0 °F79 %29.68 in6.2 miNNW (340°)4.6 mphMostly Cloudy
9:00 PM84.2 °F77.0 °F79 %29.68 in6.2 miWSW (250°)4.6 mphMostly Cloudy
9:30 PM84.2 °F75.2 °F74 %29.71 in6.2 miSW (230°)4.6 mphMostly Cloudy
10:00 PM84.2 °F73.4 °F70 %29.71 in6.2 miSW (230°)5.8 mphMostly Cloudy
10:30 PM84.2 °F73.4 °F70 %29.71 in6.2 miWNW (290°)6.9 mphMostly Cloudy
11:00 PM84.2 °F73.4 °F70 %29.71 in6.2 miWest (270°)9.2 mphMostly Cloudy
11:30 PM84.2 °F73.4 °F70 %29.71 in6.2 miWest (270°)6.9 mphMostly Cloudy
Hourly data recorded from VTBU, located miles away from Rayong, Thailand







STORIES FROM OUR PARTNERS